Dewpoint
54 45 44 43 57 53 46 44 20 24 34 27 26 19 16 18 25 37 43 44 43 47 47 48 47 46 49 48 48 52 52 50 49 50 47 58 64 66 66 66 67 69 70 72 73 74 74 74 74 74 74 74 74 74 74 74 74 73 74 73 73 73 73 73 73 73 72 72 72 71 71 70 70 70 70 71 70 71 71 70 69 69 69 69 69 69 69 69 69 69 69 69 70 70 70 70 69
46 45 45 43 49 51 30 36 26 20 19 16 15 17 16 17 19 32 42 42 43 46 47 46 48 49 50 50 51 49 52 54 51 51 62 66 67 67 67 66 67 69 70 72 73 73 73 74 74 74 74 74 74 74 74 73 74 74 73 73 73 73 73 73 73 73 73 72 71 71 71 71 70 70 70 70 70 70 70 70 69 69 69 69 69 69 69 69 69 69 69 69 69 70 70 70 70
52 48 43 41 50 39 30 26 25 24 22 15 15 16 18 15 15 19 39 41 46 46 46 47 48 49 49 48 47 48 50 51 51 55 65 66 65 67 66 65 67 69 71 72 72 73 73 74 74 74 74 74 74 74 74 74 74 73 73 73 73 73 73 73 73 73 72 71 71 71 71 70 70 70 69 70 70 70 70 69 68 69 68 68 69 68 69 69 69 70 69 70 69 70 70 71 71
53 49 42 41 33 31 28 24 25 21 19 15 15 16 17 17 15 30 42 45 46 46 45 46 46 48 46 44 45 48 50 49 51 56 64 64 63 67 65 65 68 69 71 72 72 73 73 74 74 74 74 74 74 74 74 74 74 73 73 73 73 73 73 73 73 73 72 71 71 71 70 70 70 69 69 69 69 69 69 69 68 67 68 68 68 68 69 69 69 70 70 69 70 70 70 71 71
37 44 42 39 29 30 28 29 20 19 17 18 16 17 19 18 18 31 43 44 45 44 43 44 45 47 47 46 46 45 48 53 55 58 60 65 67 66 65 66 68 69 70 71 72 72 73 74 74 74 74 74 74 74 74 73 73 73 73 73 73 73 73 73 73 72 72 71 71 71 71 70 70 69 69 68 68 68 68 68 68 68 68 68 68 68 68 69 70 70 70 69 69 70 70 70 71
30 33 50 40 30 30 19 22 26 20 18 18 16 17 18 17 17 22 49 44 44 43 43 44 44 45 45 47 47 47 49 50 55 58 64 66 67 66 66 68 68 68 69 70 72 72 73 74 74 74 74 74 74 74 74 73 73 73 73 73 73 73 73 73 72 72 71 71 71 71 71 71 70 70 69 69 68 67 67 67 67 67 67 67 68 68 68 70 70 71 69 69 70 70 70 71 70
27 29 29 25 26 25 21 19 17 15 16 17 16 17 18 18 17 17 21 37 43 44 44 43 45 45 43 45 48 50 51 55 57 59 65 67 67 67 67 66 67 68 69 70 71 72 73 74 74 74 74 74 74 74 73 73 73 72 73 73 73 73 73 72 72 72 71 71 71 71 71 71 70 70 69 69 68 68 67 67 67 67 67 67 68 68 69 70 70 70 69 70 70 70 70 70 71
40 27 30 21 23 22 22 18 16 16 15 15 15 15 15 17 18 17 17 15 41 42 43 44 44 41 44 46 48 53 54 58 59 65 67 67 67 67 66 65 66 68 69 71 72 72 73 74 74 74 74 74 74 73 73 73 73 73 73 73 73 73 72 72 72 72 71 71 71 71 71 71 70 69 69 69 68 68 68 67 67 67 67 68 68 68 68 70 70 70 70 70 70 70 70 70 70
26 26 34 20 25 26 19 17 15 17 16 16 16 19 35 22 20 16 16 17 21 41 44 44 43 41 45 51 54 55 56 64 66 69 67 67 67 66 66 65 66 68 69 71 72 72 73 74 74 74 74 74 73 73 73 73 73 73 73 73 73 73 73 73 72 71 71 71 71 72 72 71 70 69 69 69 69 68 68 68 68 68 67 67 68 68 69 70 70 70 70 70 70 70 70 70 70
25 26 24 22 19 21 16 15 17 15 15 16 16 16 16 14 16 15 14 14 14 43 43 44 42 45 51 52 54 58 60 67 67 67 67 67 67 66 66 67 67 68 70 71 72 72 72 74 73 73 73 73 73 73 73 73 73 73 73 73 73 73 73 72 72 72 71 71 72 72 72 71 70 70 70 69 69 68 68 68 68 68 68 68 68 69 69 69 69 70 70 70 70 70 69 69 69
25 22 25 27 26 17 17 15 15 15 15 15 15 15 15 15 14 14 15 15 17 41 42 43 49 51 53 53 56 58 64 66 66 66 66 66 66 66 66 69 69 69 70 71 72 72 72 72 73 73 73 73 73 73 73 73 73 73 73 73 73 73 73 73 72 72 72 72 72 72 72 72 71 71 71 70 69 69 69 69 68 68 68 68 68 68 69 69 70 70 69 69 69 69 69 69 70
22 27 21 17 18 17 16 15 15 16 15 15 15 15 15 16 16 14 15 15 16 37 39 47 47 52 52 54 56 61 64 66 66 66 66 66 65 67 69 69 69 70 71 71 71 71 71 72 72 73 73 73 73 73 73 73 73 73 73 73 73 73 73 73 72 72 72 72 72 71 72 72 72 71 71 70 69 69 68 68 68 68 68 69 68 69 69 69 69 69 68 68 69 69 69 69 70
21 23 19 19 19 16 18 15 15 20 18 16 15 15 16 17 14 14 14 15 15 31 41 45 49 52 52 55 58 63 62 64 66 67 67 66 68 69 69 69 70 70 71 71 71 71 71 71 71 72 72 73 73 73 73 73 73 73 73 73 73 73 73 73 72 72 72 72 71 71 72 72 71 71 71 70 70 69 68 68 68 68 68 68 68 69 69 68 69 69 69 69 69 68 69 69 69
19 20 20 17 19 15 15 15 15 15 15 16 16 16 15 15 15 15 16 15 16 14 36 50 51 54 55 58 60 61 62 64 65 66 68 69 70 70 70 69 70 70 70 70 70 71 71 71 71 71 72 72 72 72 73 73 73 73 73 73 73 73 73 73 72 72 72 72 71 71 71 71 70 70 71 71 70 69 69 68 68 68 68 68 68 68 68 69 68 69 69 69 69 69 69 69 69
17 21 22 19 17 17 15 14 14 14 14 15 15 15 15 18 15 15 15 13 14 29 49 51 55 53 55 55 57 61 63 64 65 68 69 69 69 69 69 69 69 69 70 70 70 70 70 70 71 71 72 72 72 72 72 72 73 73 73 73 73 73 73 73 72 72 72 71 71 71 71 70 70 70 70 70 69 70 69 69 68 68 68 68 68 67 68 68 68 68 68 69 70 70 69 69 70
19 17 20 21 16 16 16 15 14 13 13 14 15 15 14 14 15 14 14 14 18 35 50 50 50 50 56 55 56 62 64 64 66 69 69 68 69 69 69 68 68 69 69 70 70 70 70 70 71 71 71 72 72 72 72 72 73 73 73 73 73 73 73 72 72 72 71 72 71 71 70 70 69 69 69 69 70 70 69 69 68 67 67 67 67 67 67 67 68 68 68 69 69 70 70 70 70
23 17 17 16 14 15 16 15 14 13 14 14 15 14 14 13 14 15 16 15 13 14 44 50 34 55 57 57 59 63 64 65 68 69 68 68 68 68 68 67 68 68 69 69 69 69 69 70 70 71 71 71 72 72 72 72 72 73 73 73 73 73 72 72 72 72 71 71 71 70 70 69 68 68 68 68 69 69 69 69 68 68 67 67 67 67 67 67 68 68 68 69 69 69 70 70 69
23 21 15 13 14 15 16 16 15 16 14 14 14 14 15 14 13 14 14 13 20 19 41 46 50 55 57 60 62 64 64 65 67 67 67 67 67 67 66 67 67 66 67 68 69 69 69 70 70 71 71 71 71 72 72 72 72 72 72 72 72 72 72 72 71 71 72 70 71 70 69 69 67 67 67 70 68 69 69 69 69 68 68 67 67 67 67 68 68 68 69 69 69 70 70 68 67
19 20 16 13 14 14 16 16 16 15 15 15 15 15 14 14 14 14 11 11 11 18 46 56 58 60 61 62 63 64 64 64 66 67 67 67 67 66 66 66 66 66 66 67 67 68 69 70 70 70 70 71 71 71 72 72 72 72 72 72 72 72 72 72 71 71 70 70 70 69 70 68 67 67 68 70 70 70 69 69 69 69 68 67 67 67 67 68 68 69 69 69 70 70 68 66 65
19 17 14 14 15 15 16 16 16 16 16 14 14 14 14 14 16 21 11 11 12 25 52 56 57 59 60 61 63 63 63 63 64 66 66 66 66 66 66 65 65 66 66 66 66 67 68 69 69 70 70 71 71 71 71 72 72 71 71 72 72 71 71 71 70 70 70 69 69 68 68 68 67 67 71 70 70 69 69 69 69 69 69 68 68 68 68 68 69 69 69 69 69 68 66 65 65
15 17 15 14 15 14 15 16 15 15 15 15 14 14 14 14 15 14 18 10 10 14 51 53 58 59 60 60 61 63 63 63 63 64 65 65 66 66 66 66 65 65 66 66 66 67 67 68 68 69 70 70 71 71 71 71 72 71 71 71 71 71 71 70 70 69 69 69 68 68 68 67 67 66 67 68 68 68 66 66 67 67 66 65 68 65 65 65 65 65 64 66 64 66 66 64 63
15 14 16 15 15 14 15 15 15 15 16 14 14 13 13 14 17 12 11 10 9 11 14 53 57 59 60 60 61 63 63 63 63 63 63 64 64 65 65 65 66 66 66 65 66 66 67 67 68 69 69 70 70 70 71 71 71 71 71 71 71 71 70 70 69 69 69 68 68 68 67 66 66 66 65 65 67 66 66 66 66 65 64 65 67 66 64 63 63 64 64 64 63 63 64 62 60
14 13 12 13 14 14 15 15 15 15 15 14 14 14 14 13 13 13 12 10 11 13 13 53 56 60 60 61 62 63 63 63 63 63 63 63 64 64 65 65 65 65 65 65 65 66 66 66 67 68 68 69 70 70 70 71 71 70 71 71 70 70 70 69 69 69 68 68 67 68 66 65 65 65 65 65 65 65 66 66 65 64 64 64 64 64 64 64 64 63 63 63 61 59 60 59 60
15 13 12 11 12 13 15 15 15 14 14 13 14 15 13 13 12 13 11 11 12 12 13 57 57 60 61 61 62 63 63 63 63 64 63 63 64 64 64 65 65 65 64 65 65 65 66 66 66 67 67 68 69 70 70 70 70 70 70 70 70 70 70 69 69 69 68 68 67 67 67 65 65 65 64 64 64 64 64 64 64 64 64 63 63 64 63 62 63 62 62 61 59 62 61 61 65
24 15 14 12 12 12 13 13 13 14 14 14 14 13 13 13 13 13 11 11 11 13 15 36 55 58 61 61 62 63 63 63 64 64 64 64 64 65 64 65 64 64 64 64 65 65 65 65 66 66 67 68 69 70 69 70 70 69 70 70 70 70 69 69 69 69 68 68 68 66 67 64 65 64 63 63 63 63 64 62 62 62 62 62 62 63 63 61 61 61 61 61 65 67 66 66 67
25 24 18 13 12 12 11 11 12 13 13 13 12 11 12 13 13 11 11 12 12 12 12 45 55 58 60 61 62 62 63 63 64 64 64 64 64 64 64 64 64 64 64 64 64 65 65 65 66 66 66 67 69 69 69 69 69 69 69 70 69 70 69 69 68 68 68 68 68 66 66 64 64 63 62 62 62 62 63 63 62 61 61 62 62 62 62 60 62 65 66 66 66 65 66 66 67
24 23 21 18 14 11 11 10 11 12 12 13 12 11 11 11 13 10 11 12 13 14 12 51 56 58 60 60 61 62 63 63 64 64 64 64 64 64 64 64 63 63 64 64 64 65 65 65 66 66 66 68 69 69 68 68 69 68 69 69 69 69 69 69 68 68 68 68 67 67 65 64 63 63 61 61 62 62 63 64 63 62 61 63 62 61 62 64 67 67 66 66 65 65 65 65 66
24 24 25 24 22 19 12 10 9 10 10 12 12 12 12 11 11 10 11 12 16 15 16 52 54 57 59 60 60 61 62 63 63 64 64 64 64 63 63 63 63 63 64 64 64 65 64 65 65 66 66 68 69 69 69 67 68 68 68 69 68 69 69 68 68 68 68 67 67 66 65 64 64 65 63 63 62 64 64 65 65 64 64 66 63 64 68 69 68 67 67 67 66 65 65 65 65
23 25 24 24 24 21 18 12 9 9 8 10 11 10 10 10 10 11 11 12 14 13 14 48 54 56 58 58 59 60 61 61 63 63 63 63 64 63 63 64 63 63 64 65 65 65 64 65 65 65 65 68 68 68 68 67 67 67 68 68 68 69 69 68 68 67 67 66 66 65 64 64 65 65 65 64 65 65 65 64 64 67 68 68 68 69 69 68 68 68 67 67 67 65 65 65 66
22 26 25 23 21 20 20 17 11 8 7 9 10 7 8 9 10 10 11 11 12 16 14 33 54 55 57 57 57 58 60 61 62 63 63 63 63 63 63 64 63 63 64 65 65 64 65 65 66 65 65 67 68 68 68 66 66 66 67 67 68 68 68 68 67 67 67 65 65 64 63 64 65 64 66 65 65 64 65 63 66 66 66 67 68 69 69 68 66 65 65 65 67 65 65 65 64
22 25 27 24 20 17 17 15 12 8 9 7 8 7 7 8 9 10 11 11 11 11 11 14 53 54 56 56 56 56 57 61 62 63 64 64 63 63 63 63 63 64 65 65 65 65 65 65 66 65 66 67 68 67 67 66 65 66 67 67 68 68 68 67 67 66 66 64 65 64 63 64 66 66 67 66 66 65 65 65 65 66 66 66 67 68 68 67 66 65 65 64 64 65 64 65 64
25 22 19 22 21 19 16 14 11 7 8 7 8 6 5 7 9 10 10 10 11 11 11 11 26 51 52 43 54 56 58 60 62 63 65 64 64 63 63 63 63 64 64 65 65 65 64 65 65 65 65 67 67 67 67 67 65 65 67 68 67 68 67 67 66 66 66 64 64 64 64 65 66 66 67 67 66 66 65 66 66 66 66 66 66 68 67 66 66 66 66 65 63 65 65 62 61
25 23 22 18 20 19 16 15 11 8 7 7 6 4 6 7 9 10 10 10 9 10 10 10 9 27 46 36 48 56 58 60 61 63 65 65 64 64 63 63 63 64 64 65 65 65 65 65 65 65 65 66 67 67 67 67 65 66 67 67 67 67 66 66 66 66 65 64 64 64 64 65 65 66 67 67 66 66 65 66 65 66 66 66 66 67 66 65 65 66 64 65 64 63 64 64 63
19 24 23 25 21 16 14 13 10 8 7 5 6 4 5 10 7 8 20 11 9 8 11 11 10 19 25 27 43 55 57 60 61 62 65 66 65 64 64 64 64 65 64 65 65 65 65 65 65 65 65 66 66 66 67 67 66 66 67 67 67 66 66 66 66 65 65 64 64 64 64 66 66 66 67 66 66 66 66 65 65 66 67 66 67 66 65 64 64 64 63 64 65 64 63 63 62
13 19 23 23 23 23 17 10 11 8 6 6 5 5 5 6 7 6 6 11 10 10 11 12 12 16 24 28 38 51 56 59 60 61 64 66 65 65 64 64 64 65 64 65 65 65 65 66 65 65 65 66 66 67 67 67 67 66 67 66 66 66 66 66 65 65 65 64 64 64 65 66 66 66 67 67 66 65 65 65 66 66 67 67 66 65 64 64 64 64 64 64 64 64 63 63 61
9 14 21 21 19 19 19 18 11 7 5 4 5 5 4 4 6 6 8 5 8 11 12 17 17 14 20 26 31 46 54 58 61 62 64 67 66 65 64 65 65 65 65 65 65 66 66 66 65 65 66 66 67 67 67 67 66 66 66 66 66 65 65 65 65 64 65 64 64 65 65 66 66 67 67 66 66 65 65 64 65 66 67 66 65 64 63 63 63 63 63 63 62 63 64 64 62
17 17 16 17 19 19 18 15 11 8 6 4 4 5 6 6 5 7 8 11 14 12 12 14 16 17 21 23 27 34 49 56 61 63 65 67 66 66 65 65 65 65 65 65 65 66 66 66 65 65 66 66 67 66 66 66 65 65 65 65 65 65 65 65 65 64 64 64 65 65 66 66 67 67 67 66 66 67 65 65 65 65 66 66 65 64 64 63 62 63 63 63 62 62 62 63 62
16 17 16 14 16 16 19 16 11 9 7 5 6 4 5 7 8 7 8 9 10 12 12 13 14 17 20 20 21 24 41 56 61 63 65 66 66 66 65 65 66 65 65 65 65 66 66 66 65 65 66 66 66 66 66 66 65 65 65 65 65 65 65 64 64 64 64 65 65 65 66 66 66 66 66 66 66 65 64 65 65 66 66 65 65 64 63 65 63 63 62 61 62 62 61 63 62
13 14 15 15 14 15 16 17 16 11 6 5 6 5 4 6 10 8 8 7 9 12 14 14 15 16 20 21 18 22 48 58 62 63 65 66 66 65 65 65 66 65 65 65 65 66 66 66 66 66 66 66 66 66 66 65 65 65 65 65 65 64 64 65 64 65 65 65 65 65 66 66 66 65 65 66 65 65 65 65 65 65 66 66 65 64 63 63 62 63 62 61 60 62 62 63 60
10 13 13 13 14 13 12 13 15 15 11 6 6 6 9 8 9 11 11 8 9 7 11 21 24 15 18 20 21 21 52 61 62 62 64 65 65 65 65 65 66 65 65 65 66 66 66 66 66 66 66 66 66 66 66 65 65 65 65 65 65 65 64 64 64 65 65 65 65 66 66 65 65 65 65 65 65 65 64 64 65 65 66 66 64 63 62 63 63 64 63 62 61 59 61 61 62
9 8 11 11 11 12 12 13 14 12 10 7 7 7 6 9 8 8 11 13 9 9 14 20 24 26 20 24 21 25 43 60 62 62 63 64 64 64 65 65 66 65 65 65 65 66 66 66 66 66 66 66 66 66 65 65 65 64 65 65 65 65 64 64 64 63 64 65 65 65 65 65 65 65 64 64 65 64 64 64 65 65 65 65 64 64 63 64 65 64 63 63 62 60 60 61 60
9 7 8 10 11 11 11 12 12 13 13 8 4 5 6 7 9 9 10 12 11 11 11 11 15 21 22 22 23 30 49 58 62 62 63 64 64 64 65 65 66 65 65 66 66 66 66 66 66 66 66 66 66 66 65 65 64 64 64 64 63 63 62 62 62 63 64 65 64 64 64 65 65 65 65 65 65 65 65 65 65 65 65 65 65 64 64 64 65 64 64 63 63 62 61 60 58
11 8 8 8 10 11 10 11 11 11 11 11 6 3 9 17 8 10 11 10 11 14 13 11 10 10 17 18 24 31 49 57 61 62 63 63 64 64 65 65 65 65 66 66 66 66 66 66 66 66 66 66 66 65 65 65 64 64 64 64 63 63 62 62 62 63 64 64 64 64 64 64 64 65 65 65 65 65 65 65 65 65 65 66 67 65 64 63 64 64 65 62 61 62 61 58 58
8 9 8 9 10 10 10 10 10 10 13 12 12 5 4 6 8 10 10 11 10 12 13 13 11 11 10 15 20 34 51 57 60 61 62 63 63 63 64 65 65 66 66 66 66 66 66 66 66 66 66 66 66 65 65 64 64 63 63 63 63 63 63 62 62 64 64 64 64 64 64 64 64 64 65 65 65 65 65 65 65 66 66 66 66 65 64 64 64 62 62 61 60 61 60 58 57
7 9 8 7 9 11 11 10 9 10 11 11 13 11 5 4 11 15 10 9 10 10 12 13 13 12 12 12 20 30 52 58 60 61 62 63 63 63 64 65 65 66 66 66 66 66 66 66 66 66 66 66 66 65 65 64 64 63 63 63 63 63 63 63 64 64 64 64 64 64 63 63 63 63 64 65 65 65 66 66 66 66 66 66 66 65 64 64 61 60 59 58 58 58 59 58 56
8 8 9 9 9 10 12 11 9 9 11 12 11 12 7 3 14 11 13 7 9 10 10 11 14 15 12 13 17 36 52 59 60 61 62 63 63 63 64 65 65 66 66 66 66 66 66 66 66 66 65 65 65 65 65 64 64 63 63 62 63 63 64 64 64 64 63 63 64 63 63 63 63 63 64 64 64 65 65 66 66 65 65 65 65 63 62 61 60 59 58 57 57 56 56 55 54
11 9 7 7 6 6 10 13 11 10 10 10 11 12 11 5 10 8 11 10 8 10 12 13 15 16 16 15 16 39 54 59 60 61 62 62 63 63 64 65 65 66 66 66 66 65 66 66 66 65 65 65 65 65 65 64 64 63 63 62 63 63 64 64 63 63 63 63 63 63 63 63 64 65 64 64 64 64 64 66 66 65 65 65 62 60 60 59 59 59 58 57 56 55 54 54 54
19 16 9 5 6 8 10 12 12 9 7 8 10 12 12 10 8 8 10 14 12 11 11 12 14 13 14 17 30 46 56 59 60 61 62 62 63 64 64 65 65 65 66 66 65 65 65 65 65 65 65 65 65 65 65 64 63 63 63 62 63 64 64 63 63 63 64 63 63 63 64 64 65 65 64 63 63 64 64 64 65 65 65 62 61 60 59 59 58 57 56 56 56 55 55 53 52
16 16 16 9 9 11 12 12 13 10 6 6 9 11 11 11 11 12 10 12 13 12 10 11 12 11 13 18 39 53 58 60 60 60 62 63 63 63 64 65 65 65 65 65 65 65 65 65 65 65 64 65 65 65 64 64 63 62 63 62 64 64 64 64 63 63 63 63 63 64 64 64 64 64 63 63 63 64 64 64 64 64 62 61 61 60 59 57 57 56 56 55 55 54 54 52 51
16 15 14 11 6 9 10 12 11 10 9 6 6 11 9 11 11 11 11 13 13 13 13 12 11 13 14 19 42 56 58 60 60 61 62 63 63 64 64 65 65 65 65 65 65 65 65 65 65 64 64 65 65 64 64 64 63 62 63 62 64 65 64 64 63 63 63 63 64 64 65 64 64 64 63 62 63 63 63 63 64 63 62 62 60 58 58 58 57 55 55 54 53 53 52 51 51
14 16 14 12 7 10 10 10 8 7 6 7 6 5 11 9 11 14 13 14 14 13 13 14 15 14 16 17 44 57 58 60 60 61 62 63 63 64 64 65 65 65 65 65 65 65 65 65 65 64 64 65 64 64 64 64 63 63 62 63 65 64 64 64 63 63 63 63 63 64 64 64 64 63 62 62 63 63 62 62 62 62 61 60 59 58 58 57 57 56 55 54 53 52 51 51 50
17 16 15 12 10 10 12 15 8 9 8 9 7 13 21 9 19 17 13 12 13 17 15 18 16 18 15 21 45 58 59 60 61 61 62 63 63 64 64 65 65 65 65 65 65 65 65 64 65 64 64 65 64 64 64 63 63 63 63 64 64 64 64 63 63 63 63 63 63 63 63 64 63 62 62 62 62 62 61 61 61 60 60 59 59 57 57 56 55 54 54 53 52 53 50 49 49
15 16 15 15 15 8 13 16 19 18 12 10 17 12 11 12 14 15 14 12 12 12 12 15 17 17 18 24 43 58 59 60 60 61 61 62 63 64 64 65 65 65 65 65 65 65 65 64 65 64 64 65 64 64 64 63 63 63 63 64 64 64 63 62 62 62 63 63 63 63 63 63 62 62 62 62 61 61 61 60 60 59 59 59 58 57 57 55 55 54 53 52 51 50 50 49 49
17 14 13 15 16 15 13 11 11 13 12 9 14 10 9 8 13 18 11 11 11 10 11 18 21 19 20 25 38 56 59 60 61 61 62 62 63 63 64 65 65 65 65 65 65 65 65 65 65 64 64 64 64 64 64 63 63 62 63 64 64 64 63 63 63 63 63 63 62 63 62 62 62 62 62 61 61 60 60 60 59 59 59 58 57 57 56 54 54 53 52 51 51 51 50 49 49
15 15 18 22 17 13 15 15 12 8 9 9 9 11 9 8 12 18 10 10 10 11 13 17 20 22 21 26 32 55 59 60 60 61 62 62 63 63 64 64 65 66 65 65 65 65 65 65 65 65 64 64 64 64 64 63 63 63 64 64 64 63 63 63 63 63 63 63 63 63 62 62 62 61 61 60 60 60 59 59 59 59 58 58 57 57 56 54 53 52 51 49 48 47 47 47 47
17 16 28 29 32 26 21 18 16 10 11 7 8 11 11 11 14 15 11 10 10 13 19 21 19 22 23 26 29 51 58 59 60 61 61 62 63 63 64 64 65 65 65 66 65 65 65 65 65 65 65 64 64 64 64 63 63 63 64 64 64 64 63 63 63 63 63 62 63 62 62 61 61 61 60 60 60 60 59 59 59 58 58 57 57 56 56 54 52 50 49 49 48 47 47 47 47
16 17 18 27 28 26 22 23 15 10 13 12 12 8 13 21 23 17 12 10 13 18 20 24 23 21 23 26 28 45 57 58 60 61 61 62 62 63 63 64 65 65 66 66 66 65 65 65 65 64 64 64 63 64 63 63 63 63 64 64 64 63 63 64 63 63 62 62 62 62 61 61 61 60 60 60 60 59 59 58 57 57 57 57 56 55 54 53 51 50 49 49 48 48 47 47 48
27 21 21 26 25 24 19 18 16 14 10 13 8 13 20 25 24 22 15 16 18 24 21 24 24 22 23 27 28 44 56 57 60 61 61 62 62 62 63 64 65 65 65 65 66 65 65 65 65 64 64 64 63 64 64 63 63 64 64 64 64 63 63 63 63 63 62 62 61 61 61 61 60 59 59 59 59 59 59 58 57 56 56 56 55 54 54 51 50 49 49 49 48 47 46 46 45